This demonstration page uses our WeatherBlox Daily Observations layout. Learn more.

Left ArrowRight Arrow

39.08367, -84.50855

Hourly Observations for December 23, 2017

Temp ( °F °C ) Dew Point ( °F °C ) Humidity (%) Winds ( mph kmh ) Pressure ( in mb ) Visibility ( mi km ) Precip ( " mm )
12:10 am 00:10 Cloudy with Rain 52 11.1 52 11.1 100 100 N N/A 29.94 1014 3 4 0.04 1.02
12:20 am 00:20 Cloudy with Rain 52 11.1 52 11.1 100 100 N N/A 29.94 1014 2 2 0.06 1.52
12:53 am 00:53 Cloudy with Heavy Rain 52 11.1 52 11.1 100 100 N N/A 29.91 1013 2 3 0.18 4.57
1:02 am 01:02 Cloudy with Rain 52 11.1 52 11.1 100 100 N N/A 29.94 1014 1 2 0.03 0.76
1:07 am 01:07 Cloudy with Rain 52 11.1 52 11.1 100 100 N N/A 29.94 1014 2 2 0.05 1.27
1:18 am 01:18 Cloudy with Rain 52 11.1 52 11.1 100 100 N N/A 29.94 1014 3 4 0.08 2.03
1:25 am 01:25 Cloudy with Rain 52 11.1 52 11.1 100 100 N N/A 29.94 1014 3 4 0.09 2.29
1:45 am 01:45 Cloudy with Rain 52 11.1 52 11.1 100 100 NNW 5 7 29.94 1014 5 8 0.14 3.56
1:53 am 01:53 Cloudy with Rain 52 11.1 52 11.1 100 100 N 5 7 29.89 1012 4 6 0.16 4.06
2:53 am 02:53 Cloudy with Rain 49 9.4 49 9.4 100 100 N 7 11 29.88 1012 5 8 0.14 3.56
3:09 am 03:09 Cloudy with Rain 49 9.4 48 8.9 97 97 N 6 9 29.91 1013 5 8 0.04 1.02
3:48 am 03:48 Cloudy with Rain 48 9 46 8 94 94 NNW 8 13 29.91 1013 4 6 0.18 4.57
3:53 am 03:53 Cloudy with Rain 47 8.3 47 8.3 100 100 N 10 17 29.87 1011 5 8 0.19 4.83
4:45 am 04:45 Cloudy with Rain 44 6.7 43 6.1 96 96 N 8 13 29.88 1012 5 8 0.19 4.83
4:53 am 04:53 Cloudy with Rain 44 6.7 43 6.1 96 96 N 9 15 29.86 1011 6 10 0.21 5.33
5:42 am 05:42 Cloudy with Rain 42 5.6 40 4.4 92 92 NNE 13 20 29.85 1011 6 10 0.10 2.54
5:51 am 05:51 Cloudy with Rain 43 6 39 4 87 87 N 15 24 29.85 1011 4 6 0.12 3.05
5:53 am 05:53 Cloudy with Rain 42 5.6 40 4.4 92 92 NNE 14 22 29.83 1010 4 6 0.13 3.30
6:08 am 06:08 Cloudy with Rain 41 5 40 4.4 96 96 N 9 15 29.85 1011 7 11 0.02 0.51
6:53 am 06:53 Cloudy with Light Rain 41 5 39 3.9 93 93 NNE 12 19 29.85 1011 10 16 0.06 1.52
7:53 am 07:53 Cloudy with Light Rain 40 4.4 39 3.9 97 97 N 10 17 29.87 1012 10 16 0.02 0.51
8:53 am 08:53 Cloudy with Light Rain 40 4.4 38 3.3 93 93 N 10 17 29.86 1011 10 16 0.02 0.51
9:28 am 09:28 Cloudy with Light Rain 39 3.9 36 2.2 89 89 N 10 17 29.91 1013 8 13 N/A
9:53 am 09:53 Cloudy with Light Rain 39 3.9 37 2.8 93 93 NNE 12 19 29.88 1012 6 10 0.01 0.25
10:53 am 10:53 Cloudy with Rain 38 3.3 36 2.2 93 93 NNW 17 28 29.95 1014 4 6 0.06 1.52
11:53 am 11:53 Cloudy with Light Rain 36 2.2 34 1.1 93 93 N 12 19 29.96 1015 7 11 0.02 0.51
12:53 pm 12:53 Cloudy 36 2.2 34 1.1 93 93 N 8 13 29.97 1015 8 13 0.01 0.25
1:53 pm 13:53 Cloudy with Light Rain 37 2.8 35 1.7 93 93 N 5 7 29.96 1015 10 16 0.01 0.25
2:53 pm 14:53 Cloudy 38 3.3 34 1.1 86 86 NNW 10 17 30.05 1018 10 16 N/A
3:53 pm 15:53 Cloudy 38 3.3 34 1.1 86 86 NNW 7 11 30.10 1019 10 16 N/A
4:53 pm 16:53 Cloudy 37 2.8 32 undefined 82 82 NNW 12 19 30.14 1021 9 14 N/A
5:53 pm 17:53 Cloudy 37 2.8 29 -1.7 73 73 NW 6 9 30.16 1021 10 16 N/A
6:53 pm 18:53 Cloudy 36 2.2 29 -1.7 76 76 N 6 9 30.20 1023 10 16 N/A
7:53 pm 19:53 Cloudy 36 2.2 29 -1.7 76 76 NE 3 6 30.22 1023 10 16 N/A
8:53 pm 20:53 Cloudy 36 2.2 29 -1.7 76 76 NW 7 11 30.23 1024 10 16 N/A
9:53 pm 21:53 Cloudy 36 2.2 28 -2.2 73 73 W 3 6 30.23 1024 10 16 N/A
10:53 pm 22:53 Cloudy 35 1.7 31 -0.6 85 85 N N/A 30.24 1024 10 16 N/A
11:53 pm 23:53 Cloudy 34 1.1 31 -0.6 89 89 ENE 3 6 30.23 1024 10 16 N/A

Powered by AerisWeather